COSMOS 2491 DEB, 44912

Orbit data source: Space-Track

COSMOS 2491 DEB, 44912 is space debris in LEO originally from a launch on Wed, 25 Dec 2013 UTC launched from the Plesetsk Missile And Space Complex (PKMTR). Debris objects in space refer to the collection of defunct objects orbiting the Earth. Examples of debris include non-operational satellites, rocket bodies, and fragments generated from explosions, collisions, or faulty payload assembly.

Loading next visibility...
Identifier
44912, 2013-076F
Orbit
LEO
Last TLE update
4 days ago
Origin
Manufacturer
TsNIIKhM
Mission
Spacecraft
Bus & Motor
Unknown
Mass
Unknown
Launch date (UTC)
2013-12-25 (12 years ago)
Launch vehicle
Unknown
Launch site
Plesetsk Missile And Space Complex (PKMTR)
Object type
Payload
Rocket body
Debris
Shape & HBR
Unknown
Radar Cross Section
Small (<0.1 m²)

Expand to show TLE details & history

TLE from 4 days ago
0 COSMOS 2491 DEB
1 44912U 13076F   25179.18106516  .00007091  00000-0  29941-1 0  9992
2 44912  82.4354 340.7911 0238024 233.5193 124.3765 12.74380457252736
Epoch: 2025-06-28T04:20Z
TLE epoch observation values (Epoch: 2025-06-28T04:20:44.029Z)
Latitude
-0.00001°
Longitude
-0.91562°
Altitude
1,473.889 km
Speed
7.077 km/s
True Right ascension
22h 43m 09s
True Declination
0° 00' 00"
Sunlit
Object was in daylight at epoch
Visualization orbit readout
Latitude
35.23733°
Longitude
1.77105°
Altitude
1,550.519 km
Speed
7.011 km/s
Apparent Right ascension
01h 09m 23s
Apparent Declination
3° 10' 55"
Sunlit
Object is in daylight
Visualization observer readout
Local Sidereal Time
16:19:26
Azimuth
57.154° ENE
Elevation
-28.793°
Doppler factor
1
Orbital elements
Apogee altitude
1,545.675 km
Perigee altitude
1,177.233 km
Semi-major axis
7,739.591 km
Eccentricity
0.0238
Inclination
82.4354°
RAAN
340.7911°
Arg. of periapsis
233.5193°
True anomaly
Unknown
Mean anomaly
124.3765°
Eccentric anomaly
Unknown
Mean motion
3.18762 °/min
Orbital period
112.94 mins
BSTAR
0.029941
Loading maneuver chart data...
Loading SW <> Apogee altitude chart data...
Loading historical data...
Loading historical data...
Loading historical data...
Loading historical data...
Loading historical data...
Loading historical data...
Loading historical data...

COSMOS 2491 DEB Visibility forecast

Observer location: undefined°, undefined°

Span
Click to sort rows by Start time (UTC) header in descending order
Start Az.
Max El. time (UTC)
Max El. Az.
Max El.
End time (UTC)
End Az.
15 mins2025-07-02 10:10:59.754Z152.66° SSE2025-07-02 10:18:59.754Z81.223° E34.491°2025-07-02 10:25:59.754Z22.917° NE
14 mins2025-07-02 12:05:59.754Z222.924° SW2025-07-02 12:11:59.754Z277.981° WNW34.398°2025-07-02 12:19:59.754Z352.914° N
6 mins2025-07-02 20:10:59.754Z39.887° NE2025-07-02 20:12:59.754Z55.371° ENE13.76°2025-07-02 20:16:59.754Z86.631° E
14 mins2025-07-02 22:01:59.754Z355.82° N2025-07-02 22:08:59.754Z80.294° E44.298°2025-07-02 22:15:59.754Z167.196° S
8 mins2025-07-02 23:57:59.754Z313.568° NW2025-07-03 00:01:59.754Z279.721° WNW18.235°2025-07-03 00:05:59.754Z245.751° WSW
|